Location: Blackfoot
(53.5367°N, 112.7800°W)
Time: 03:47:42
(UTC-07:00)

Amateur Radio Satellites - All Passes

Search period start: 16 January 2017 03:17
Search period end: 17 January 2017 03:17
Location: Blackfoot, 53.5367°N, 112.7800°W

Satellite Date Start Highest point End Downlink Frequencies (MHz)
Time Altitude Azimuth
MOZHAYETS 4 16 Jan 03:20:09 03:24:42 67° 258° (WSW) 03:29:19
YUBILEINY 16 Jan 03:20:30 03:28:45 46° 274° (W) 03:36:57 435.215
RS-15 16 Jan 03:24:05 03:36:11 65° 329° (NNW) 03:48:35 29.354- 29.394
ITAMSAT 1 16 Jan 03:39:38 03:44:45 53° 101° (E) 03:49:50 435.822/435.867
ITUPSAT 1 16 Jan 03:41:24 03:44:41 18° 271° (W) 03:47:59 437.325
CUBESAT XI-V 16 Jan 03:52:12 03:56:45 51° 68° (ENE) 04:01:21 437.345
Cosmos 2504 16 Jan 03:54:30 04:01:39 44° 273° (W) 04:08:25 435.465 / 435.565
AO-7 16 Jan 04:03:40 04:11:53 54° 102° (ESE) 04:20:00 29.400- 29.500
PCSat 16 Jan 04:07:01 04:12:16 47° 321° (NW) 04:17:32 145.827
STARS 16 Jan 04:07:16 04:11:38 72° 72° (ENE) 04:16:02 437.465
M-CUBED/EXP-1 PRIME 16 Jan 04:07:32 04:11:09 24° 260° (W) 04:14:37 437.505
GONETS M04 16 Jan 04:13:36 04:16:40 12° 28° (NNE) 04:19:44
Cosmos 2491 16 Jan 04:14:37 04:23:10 58° 290° (WNW) 04:31:47 435.465 / 435.565
AIST 2 16 Jan 04:16:32 04:20:37 45° 36° (NE) 04:24:43 435.215
Gurwin Techsat 1B 16 Jan 04:21:49 04:26:07 25° 304° (NW) 04:30:24 435.225
BRITE-PL 16 Jan 04:26:34 04:30:15 19° 85° (E) 04:33:44 437.365/2234.400
CUSAT 1 16 Jan 04:35:48 04:40:51 88° 102° (ESE) 04:47:31 437.405
Cosmos 2499 16 Jan 04:36:19 04:38:58 12° 36° (NE) 04:41:34 435.465 / 435.565
KKS-1 16 Jan 04:36:57 04:41:01 34° 264° (W) 04:45:06 437.445
DANDE 16 Jan 04:38:18 04:41:35 27° 86° (E) 04:45:45 436.750
ISS 16 Jan 04:48:54 04:52:05 49° 193° (SSW) 04:55:15 145.825
Oscar 19 16 Jan 04:49:37 04:51:16 11° 316° (NW) 04:52:56 437.125/150
AUBIESAT-1 16 Jan 04:50:43 04:52:34 12° 266° (W) 04:54:22 437.475
GOMX 1 16 Jan 04:56:55 04:59:21 14° 83° (E) 05:01:41 467.674
MOZHAYETS 4 16 Jan 05:02:00 05:02:48 10° 278° (W) 05:03:36
STRAND 1 16 Jan 05:15:54 05:19:39 21° 54° (NE) 05:23:26 437.568
ITAMSAT 1 16 Jan 05:19:29 05:24:01 31° 301° (WNW) 05:28:34 435.822/435.867
YUBILEINY 16 Jan 05:20:53 05:23:06 11° 298° (WNW) 05:25:19 435.215
NOAA 15 16 Jan 05:23:47 05:26:15 13° 84° (E) 05:28:42 137.62
CUBESAT XI-V 16 Jan 05:30:27 05:34:24 26° 268° (W) 05:38:23 437.345
HORYU 2 16 Jan 05:31:20 05:35:13 29° 95° (E) 05:39:06 437.375
RS-15 16 Jan 05:39:16 05:51:12 50° 2° (N) 06:03:07 29.354- 29.394
LilacSat-2 16 Jan 05:41:55 05:44:10 15° 88° (E) 05:46:24 437.200
STARS 16 Jan 05:45:36 05:48:30 17° 271° (W) 05:51:24 437.465
PCSat 16 Jan 05:52:45 05:56:57 22° 346° (NNW) 06:01:10 145.827
CUTE-I 16 Jan 05:54:03 05:58:09 22° 90° (E) 06:02:14 437.470
AIST 2 16 Jan 05:55:08 05:59:06 38° 236° (WSW) 06:03:02 435.215
AO-7 16 Jan 05:56:41 06:04:42 51° 304° (NW) 06:12:39 29.400- 29.500
DOVE 4 16 Jan 06:00:33 06:03:50 21° 90° (E) 06:07:00 437.250
NOAA 18 16 Jan 06:00:42 06:03:43 15° 85° (E) 06:06:41 137.9125
BRITE-PL 16 Jan 06:04:09 06:09:27 77° 287° (WNW) 06:14:17 437.365/2234.400
GONETS M04 16 Jan 06:09:21 06:17:12 34° 58° (ENE) 06:25:01
Cosmos 2491 16 Jan 06:16:35 06:22:23 19° 317° (NW) 06:28:12 435.465 / 435.565
CUSAT 1 16 Jan 06:19:35 06:23:57 23° 310° (NW) 06:29:11 437.405
DANDE 16 Jan 06:20:23 06:24:04 38° 296° (WNW) 06:28:55 436.750
ISS 16 Jan 06:25:44 06:28:05 19° 213° (SSW) 06:30:26 145.825
Cosmos 2499 16 Jan 06:27:51 06:34:47 41° 65° (ENE) 06:41:23 435.465 / 435.565
CINEMA 3 16 Jan 06:29:46 06:30:23 10° 84° (E) 06:30:59 145.822/145.860
GOMX 1 16 Jan 06:33:30 06:38:17 90° 110° (ESE) 06:42:42 467.674
Cubesat XI-IV 16 Jan 06:35:05 06:40:10 43° 98° (E) 06:45:15 437.490
STRAND 1 16 Jan 06:53:12 06:58:17 83° 252° (WSW) 07:03:27 437.568
HO-68 16 Jan 06:56:29 07:01:40 21° 86° (E) 07:06:48 435.675
NOAA 15 16 Jan 07:01:41 07:07:02 70° 104° (ESE) 07:12:20 137.62
HORYU 2 16 Jan 07:07:43 07:11:55 42° 294° (WNW) 07:16:07 437.375
LilacSat-2 16 Jan 07:15:02 07:18:53 68° 287° (WNW) 07:22:43 437.200
CUTE-I 16 Jan 07:33:26 07:38:45 73° 290° (WNW) 07:44:05 437.470
CUTE 1.7 + AOD 2 16 Jan 07:34:42 07:38:22 27° 93° (E) 07:42:01 437.475
DOVE 4 16 Jan 07:37:40 07:41:56 54° 291° (WNW) 07:46:01 437.250
PCSat 16 Jan 07:38:06 07:42:13 21° 12° (NNE) 07:46:19 145.827
NOAA 18 16 Jan 07:39:49 07:45:20 76° 105° (ESE) 07:50:47 137.9125
BRITE-PL 16 Jan 07:43:43 07:47:03 17° 309° (NW) 07:50:15 437.365/2234.400
O/OREOS (USA 219) 16 Jan 07:48:26 07:52:44 47° 112° (ESE) 07:57:02 437.305
AO-7 16 Jan 07:50:03 07:55:44 21° 329° (NNW) 08:01:24 29.400- 29.500
RS-15 16 Jan 07:53:38 08:06:03 69° 34° (NNE) 08:18:13 29.354- 29.394
CUBEBUG 2 16 Jan 07:55:08 07:58:16 20° 90° (E) 08:01:29 437.445
CANX-2 16 Jan 08:02:34 08:06:49 53° 100° (E) 08:11:02 2200.000
CINEMA 3 16 Jan 08:04:08 08:08:19 77° 105° (ESE) 08:12:30 145.822/145.860
PRISM 16 Jan 08:05:00 08:08:52 37° 65° (ENE) 08:12:45 437.425
GONETS M04 16 Jan 08:06:10 08:15:00 79° 263° (W) 08:23:50
GOMX 1 16 Jan 08:12:39 08:15:41 17° 307° (NW) 08:18:35 467.674
Oscar 11 16 Jan 08:14:07 08:15:43 12° 84° (E) 08:17:20 145.826/435.025
Cubesat XI-IV 16 Jan 08:15:19 08:20:14 39° 298° (WNW) 08:25:08 437.490
Cosmos 2499 16 Jan 08:21:06 08:28:10 52° 269° (W) 08:34:57 435.465 / 435.565
SEEDS 16 Jan 08:23:54 08:28:06 53° 100° (E) 08:32:17 437.485
SO-50 16 Jan 08:29:05 08:30:37 11° 109° (ESE) 08:32:08 436.795
UWE-3 16 Jan 08:33:24 08:37:10 29° 95° (E) 08:41:00 435.000/436.395/437.385
STRAND 1 16 Jan 08:35:26 08:38:18 15° 274° (W) 08:41:12 437.568
UNISAT 6 16 Jan 08:36:58 08:40:34 27° 62° (ENE) 08:44:09 437.425
COMPASS 1 16 Jan 08:38:39 08:42:48 51° 100° (E) 08:46:54 437.405
NOAA 15 16 Jan 08:42:05 08:46:24 26° 304° (NW) 08:50:42 137.62
FUNcube-1 16 Jan 08:43:03 08:46:29 23° 92° (E) 08:49:57 145.935
HO-68 16 Jan 08:43:16 08:50:32 81° 108° (ESE) 08:57:43 435.675
JAS-2 16 Jan 08:50:25 08:54:27 21° 49° (NE) 08:58:46 435.910
TIGRISAT 16 Jan 08:51:34 08:55:23 33° 64° (ENE) 08:59:13 435.000
LilacSat-2 16 Jan 08:51:36 08:52:28 11° 307° (NW) 08:53:20 437.200
AAUSAT CUBESAT 2 16 Jan 08:54:54 08:59:05 58° 101° (E) 09:03:12 437.432
ZACube-1 16 Jan 09:02:58 09:06:57 36° 96° (E) 09:11:00 437.345
ANTELSAT 16 Jan 09:05:14 09:09:18 45° 68° (ENE) 09:13:23 437.575/2403.000
CUTE 1.7 + AOD 2 16 Jan 09:10:17 09:14:23 43° 292° (WNW) 09:18:28 437.475
CUTE-I 16 Jan 09:14:38 09:18:00 17° 310° (NW) 09:21:22 437.470
DOVE 4 16 Jan 09:18:14 09:18:40 10° 312° (NW) 09:19:05 437.250
DELFI C3 16 Jan 09:19:48 09:22:33 18° 89° (E) 09:25:18 145.870
NOAA 18 16 Jan 09:21:10 09:25:31 25° 306° (NW) 09:29:51 137.9125
PCSat 16 Jan 09:21:51 09:27:01 42° 36° (NE) 09:32:10 145.827
O/OREOS (USA 219) 16 Jan 09:28:19 09:32:19 31° 313° (NW) 09:36:21 437.305
QB50P1 16 Jan 09:29:17 09:31:17 13° 53° (NE) 09:33:18 145.935-145.965
CUBEBUG 2 16 Jan 09:31:06 09:35:16 58° 289° (WNW) 09:39:31 437.445
POLYITAN 1 16 Jan 09:31:42 09:33:51 14° 54° (NE) 09:36:01 437.675
QB50P2 16 Jan 09:32:31 09:34:52 15° 54° (NE) 09:37:15 145.880/145.840
CANX-2 16 Jan 09:38:58 09:42:24 24° 299° (WNW) 09:45:50 2200.000
PRISM 16 Jan 09:40:33 09:44:14 30° 265° (W) 09:47:57 437.425
AO-7 16 Jan 09:42:16 09:45:28 13° 356° (N) 09:48:38 29.400- 29.500
CINEMA 3 16 Jan 09:42:21 09:44:59 17° 303° (WNW) 09:47:38 145.822/145.860
Oscar 11 16 Jan 09:48:13 09:52:36 80° 103° (ESE) 09:56:59 145.826/435.025
POPSAT HIP 1 16 Jan 09:54:23 09:57:28 20° 58° (ENE) 10:00:33 437.405
HUMSAT D 16 Jan 09:56:20 09:59:49 24° 92° (E) 10:03:19 437.325/437.525
SEEDS 16 Jan 10:00:07 10:03:32 24° 299° (WNW) 10:06:55 437.485
GONETS M04 16 Jan 10:04:13 10:10:26 22° 287° (WNW) 10:16:41
SO-50 16 Jan 10:05:34 10:10:12 60° 129° (SE) 10:14:46 436.795
RS-15 16 Jan 10:06:39 10:18:36 58° 242° (WSW) 10:30:11 29.354- 29.394
UWE-3 16 Jan 10:09:46 10:13:44 39° 293° (WNW) 10:17:47 435.000/436.395/437.385
DUCHIFAT 1 16 Jan 10:10:51 10:14:13 24° 61° (ENE) 10:17:35 145.980
UNISAT 6 16 Jan 10:13:03 10:17:08 44° 261° (W) 10:21:15 437.425
NANOSAT C BR1 16 Jan 10:13:39 10:17:11 27° 62° (ENE) 10:20:44 145.865
COMPASS 1 16 Jan 10:14:41 10:18:05 24° 299° (WNW) 10:21:28 437.405
Cosmos 2499 16 Jan 10:17:31 10:19:24 11° 293° (WNW) 10:21:15 435.465 / 435.565
FUNcube-1 16 Jan 10:18:50 10:23:00 52° 290° (WNW) 10:27:15 145.935
Cosmos 2491 16 Jan 10:24:11 10:27:01 12° 27° (NNE) 10:29:51 435.465 / 435.565
TIGRISAT 16 Jan 10:28:11 10:32:04 34° 264° (W) 10:36:00 435.000
AAUSAT CUBESAT 2 16 Jan 10:31:01 10:34:14 21° 300° (WNW) 10:37:25 437.432
HO-68 16 Jan 10:31:33 10:37:40 31° 310° (NW) 10:43:44 435.675
JAS-2 16 Jan 10:33:25 10:38:45 90° 150° (SSE) 10:44:41 435.910
ZACube-1 16 Jan 10:39:23 10:43:13 33° 295° (WNW) 10:47:08 437.345
BY70-1 16 Jan 10:40:42 10:43:03 17° 91° (E) 10:45:21 436.1900
ANTELSAT 16 Jan 10:42:42 10:46:14 25° 267° (W) 10:49:48 437.575/2403.000
DELFI C3 16 Jan 10:53:47 10:57:45 60° 289° (WNW) 11:01:42 145.870
QB50P1 16 Jan 11:02:11 11:06:23 76° 71° (ENE) 11:10:35 145.935-145.965
CUBEBUG 1 16 Jan 11:03:37 11:05:11 12° 85° (E) 11:06:44 437.445
BUGSAT 1 16 Jan 11:04:24 11:07:59 30° 64° (ENE) 11:11:33 437.445
POLYITAN 1 16 Jan 11:04:49 11:09:00 81° 75° (ENE) 11:13:13 437.675
PCSat 16 Jan 11:05:19 11:10:38 55° 238° (WSW) 11:15:55 145.827
QB50P2 16 Jan 11:05:52 11:10:04 87° 81° (E) 11:14:19 145.880/145.840
ESTCUBE 1 16 Jan 11:08:17 11:11:46 21° 90° (E) 11:15:13 437.505/2401.250
CUBEBUG 2 16 Jan 11:10:12 11:11:05 11° 309° (NW) 11:11:57 437.445
O/OREOS (USA 219) 16 Jan 11:12:15 11:13:12 11° 337° (NNW) 11:14:09 437.305
Oscar 19 16 Jan 11:14:45 11:18:26 20° 53° (NE) 11:22:07 437.125/150
Oscar 11 16 Jan 11:25:20 11:28:15 18° 304° (WNW) 11:31:09 145.826/435.025
POPSAT HIP 1 16 Jan 11:28:43 11:32:52 63° 258° (WSW) 11:37:04 437.405
AO-7 16 Jan 11:30:06 11:35:00 17° 24° (NNE) 11:39:54 29.400- 29.500
HUMSAT D 16 Jan 11:31:34 11:35:39 47° 291° (WNW) 11:39:46 437.325/437.525
CUSAT 1 16 Jan 11:38:43 11:41:15 12° 34° (NE) 11:43:50 437.405
VELOX 1 16 Jan 11:40:13 11:43:07 17° 89° (E) 11:45:59 145.980
DUCHIFAT 1 16 Jan 11:45:37 11:49:40 49° 260° (W) 11:53:45 145.980
SO-50 16 Jan 11:46:33 11:50:56 38° 330° (NNW) 11:55:14 436.795
NANOSAT C BR1 16 Jan 11:48:47 11:52:46 42° 262° (W) 11:56:47 145.865
BY70-1 16 Jan 12:10:20 12:13:44 49° 290° (WNW) 12:17:03 436.1900
Cosmos 2491 16 Jan 12:19:49 12:27:34 33° 58° (ENE) 12:35:17 435.465 / 435.565
HO-68 16 Jan 12:20:56 12:23:16 12° 334° (NNW) 12:25:35 435.675
RS-15 16 Jan 12:21:11 12:28:10 18° 267° (W) 12:35:04 29.354- 29.394
JAS-2 16 Jan 12:21:26 12:24:56 17° 277° (W) 12:28:37 435.910
DX 1 16 Jan 12:27:22 12:30:54 23° 93° (E) 12:34:22 434.975-435.025
Gurwin Techsat 1B 16 Jan 12:29:34 12:34:28 39° 62° (ENE) 12:39:22 435.225
DELFI C3 16 Jan 12:31:10 12:31:44 10° 309° (NW) 12:32:19 145.870
UKube-1 16 Jan 12:35:52 12:39:12 21° 92° (E) 12:42:31 .
CUBEBUG 1 16 Jan 12:37:51 12:42:14 80° 103° (ESE) 12:46:34 437.445
BUGSAT 1 16 Jan 12:39:32 12:43:18 35° 263° (W) 12:47:04 437.445
QB50P1 16 Jan 12:40:13 12:42:41 15° 272° (W) 12:45:09 145.935-145.965
AISAT 16 Jan 12:41:58 12:46:21 60° 102° (ESE) 12:50:41 437.250
SPROUT 16 Jan 12:42:51 12:46:58 46° 99° (E) 12:51:03 437.525
YUBILEINY 16 Jan 12:42:59 12:46:07 12° 63° (ENE) 12:49:14 435.215
POLYITAN 1 16 Jan 12:43:07 12:45:23 14° 273° (W) 12:47:40 437.675
ESTCUBE 1 16 Jan 12:44:28 12:48:58 61° 290° (WNW) 12:53:26 437.505/2401.250
QB50P2 16 Jan 12:44:28 12:46:30 13° 273° (W) 12:48:34 145.880/145.840
PCSat 16 Jan 12:51:29 12:52:53 11° 259° (WSW) 12:54:17 145.827
Oscar 19 16 Jan 12:51:54 12:57:07 88° 73° (ENE) 13:02:22 437.125/150
TISAT 1 16 Jan 12:53:27 12:54:49 11° 85° (E) 12:56:11 437.305
50 SAT 16 Jan 13:02:29 13:06:06 77° 104° (ESE) 13:09:40 437.505
VELOX 1 16 Jan 13:15:40 13:20:06 73° 289° (WNW) 13:24:29 145.980
AO-7 16 Jan 13:18:05 13:25:37 39° 49° (NE) 13:33:11 29.400- 29.500
CUSAT 1 16 Jan 13:18:59 13:25:46 33° 58° (ENE) 13:32:45 437.405
DANDE 16 Jan 13:23:53 13:28:08 17° 49° (NE) 13:32:51 436.750
ITAMSAT 1 16 Jan 13:25:42 13:30:07 30° 58° (ENE) 13:34:35 435.822/435.867
SO-50 16 Jan 13:28:58 13:32:31 21° 354° (N) 13:36:03 436.795
ITUPSAT 1 16 Jan 13:57:14 13:59:17 12° 85° (E) 14:01:19 437.325
DX 1 16 Jan 14:03:07 14:07:22 51° 292° (WNW) 14:11:34 434.975-435.025
BRITE-PL 16 Jan 14:08:19 14:10:15 12° 44° (NE) 14:12:10 437.365/2234.400
Gurwin Techsat 1B 16 Jan 14:09:22 14:14:24 42° 262° (W) 14:19:28 435.225
UKube-1 16 Jan 14:11:20 14:15:35 55° 291° (WNW) 14:19:47 .
CUBEBUG 1 16 Jan 14:15:06 14:18:00 18° 304° (NW) 14:20:53 437.445
Cosmos 2491 16 Jan 14:16:38 14:25:26 80° 262° (W) 14:34:13 435.465 / 435.565
AISAT 16 Jan 14:19:03 14:22:29 23° 302° (WNW) 14:25:53 437.250
SPROUT 16 Jan 14:19:10 14:22:43 26° 298° (WNW) 14:26:15 437.525
ESTCUBE 1 16 Jan 14:23:03 14:24:54 12° 310° (NW) 14:26:45 437.505/2401.250
TISAT 1 16 Jan 14:26:58 14:31:09 82° 103° (ESE) 14:35:20 437.305
YUBILEINY 16 Jan 14:32:17 14:40:36 49° 88° (E) 14:48:59 435.215
BEESAT 16 Jan 14:33:37 14:37:35 25° 92° (E) 14:41:32 436.000
Oscar 19 16 Jan 14:33:45 14:37:10 17° 273° (W) 14:40:37 437.125/150
O/OREOS (USA 219) 16 Jan 14:34:15 14:36:32 14° 30° (NNE) 14:38:49 437.305
SWISSCUBE 16 Jan 14:34:39 14:38:49 28° 94° (E) 14:42:56 437.505
50 SAT 16 Jan 14:36:58 14:38:49 14° 303° (WNW) 14:40:41 437.505
Cosmos 2504 16 Jan 14:46:34 14:54:07 35° 83° (E) 15:01:18 435.465 / 435.565
VELOX 1 16 Jan 14:53:36 14:55:50 14° 308° (NW) 14:58:04 145.980
AIST 1 16 Jan 14:55:59 15:00:21 68° 98° (E) 15:04:42
CUSAT 1 16 Jan 15:00:44 15:08:30 83° 259° (W) 15:16:25 437.405
HORYU 2 16 Jan 15:02:14 15:03:44 12° 49° (NE) 15:05:15 437.375
ITAMSAT 1 16 Jan 15:04:17 15:09:22 56° 259° (W) 15:14:28 435.822/435.867
DANDE 16 Jan 15:05:31 15:12:15 54° 70° (ENE) 15:20:13 436.750
MOZHAYETS 4 16 Jan 15:09:14 15:12:36 19° 89° (E) 15:15:58
AO-7 16 Jan 15:09:35 15:17:56 73° 252° (WSW) 15:26:23 29.400- 29.500
SO-50 16 Jan 15:10:29 15:14:21 26° 18° (NNE) 15:18:10 436.795
NOAA 15 16 Jan 15:14:52 15:15:32 10° 41° (NE) 15:16:12 137.62
ITUPSAT 1 16 Jan 15:33:09 15:37:59 75° 105° (ESE) 15:42:47 437.325
DOVE 4 16 Jan 15:38:36 15:39:09 10° 48° (NE) 15:39:43 437.250
BRITE-PL 16 Jan 15:42:05 15:47:27 44° 65° (ENE) 15:52:45 437.365/2234.400
DX 1 16 Jan 15:42:08 15:42:36 10° 312° (NW) 15:43:04 434.975-435.025
CUTE-I 16 Jan 15:45:04 15:48:02 15° 47° (NE) 15:51:00 437.470
AO-85 16 Jan 15:48:57 15:53:24 48° 127° (SE) 15:57:32 145.980
UKube-1 16 Jan 15:49:41 15:50:43 11° 311° (NW) 15:51:46 .
HO-68 16 Jan 15:49:42 15:52:25 12° 28° (NNE) 15:55:08 435.675
NOAA 18 16 Jan 15:55:43 15:58:15 13° 43° (NE) 16:00:46 137.9125
TISAT 1 16 Jan 16:03:40 16:06:17 16° 304° (NW) 16:08:53 437.305
GOMX 1 16 Jan 16:09:33 16:14:22 35° 63° (ENE) 16:19:01 467.674
BEESAT 16 Jan 16:10:59 16:15:41 55° 292° (WNW) 16:20:21 436.000
SWISSCUBE 16 Jan 16:12:11 16:16:50 49° 293° (WNW) 16:21:27 437.505
O/OREOS (USA 219) 16 Jan 16:12:43 16:17:05 47° 53° (NE) 16:21:26 437.305
Cosmos 2491 16 Jan 16:14:41 16:20:55 22° 286° (WNW) 16:27:09 435.465 / 435.565
AUBIESAT-1 16 Jan 16:20:40 16:23:21 20° 99° (E) 16:25:56 437.475
KKS-1 16 Jan 16:21:03 16:24:56 29° 95° (E) 16:28:47 437.445
Cubesat XI-IV 16 Jan 16:24:56 16:29:17 26° 56° (NE) 16:33:38 437.490
YUBILEINY 16 Jan 16:28:53 16:37:27 52° 292° (WNW) 16:46:06 435.215
LilacSat-2 16 Jan 16:29:52 16:32:35 19° 60° (ENE) 16:35:19 437.200
HORYU 2 16 Jan 16:35:06 16:39:26 59° 69° (ENE) 16:43:47 437.375
AIST 1 16 Jan 16:35:21 16:38:26 18° 298° (WNW) 16:41:32
Cosmos 2504 16 Jan 16:38:24 16:47:04 70° 285° (WNW) 16:55:13 435.465 / 435.565
CUSAT 1 16 Jan 16:43:37 16:49:33 25° 279° (W) 16:55:34 437.405
MOZHAYETS 4 16 Jan 16:45:37 16:50:15 69° 288° (WNW) 16:54:52
DANDE 16 Jan 16:48:23 16:55:00 46° 267° (W) 17:02:39 436.750
NOAA 15 16 Jan 16:49:06 16:53:59 39° 62° (ENE) 16:58:55 137.62
SO-50 16 Jan 16:51:00 16:55:34 69° 41° (NE) 17:00:03 436.795
AO-7 16 Jan 17:06:25 17:12:14 20° 275° (W) 17:18:06 29.400- 29.500
DOVE 4 16 Jan 17:11:06 17:15:52 47° 68° (ENE) 17:20:25 437.250
ITUPSAT 1 16 Jan 17:11:45 17:15:21 22° 304° (NW) 17:18:57 437.325
M-CUBED/EXP-1 PRIME 16 Jan 17:13:57 17:17:33 87° 290° (WNW) 17:20:55 437.505
CUBESAT XI-V 16 Jan 17:19:21 17:23:59 52° 100° (E) 17:28:34 437.345
BRITE-PL 16 Jan 17:20:34 17:25:56 42° 265° (W) 17:31:17 437.365/2234.400
CUTE-I 16 Jan 17:21:55 17:27:09 63° 68° (ENE) 17:32:25 437.470
STARS 16 Jan 17:26:23 17:30:42 56° 102° (ESE) 17:35:00 437.465
CANX-2 16 Jan 17:27:51 17:30:10 14° 54° (NE) 17:32:29 2200.000
AO-85 16 Jan 17:29:43 17:33:56 39° 326° (NNW) 17:37:53 145.980
HO-68 16 Jan 17:31:52 17:38:07 33° 52° (NE) 17:44:22 435.675
NOAA 18 16 Jan 17:32:28 17:37:47 51° 64° (ENE) 17:43:05 137.9125
CINEMA 3 16 Jan 17:35:52 17:39:19 23° 61° (ENE) 17:42:40 145.822/145.860
GOMX 1 16 Jan 17:47:04 17:52:20 49° 262° (W) 17:57:23 467.674
SEEDS 16 Jan 17:48:18 17:50:31 14° 54° (NE) 17:52:43 437.485
BEESAT 16 Jan 17:50:40 17:52:31 12° 313° (NW) 17:54:22 436.000
SWISSCUBE 16 Jan 17:52:13 17:53:35 11° 314° (NW) 17:54:58 437.505
O/OREOS (USA 219) 16 Jan 17:52:27 17:56:19 29° 253° (WSW) 18:00:12 437.305
AUBIESAT-1 16 Jan 17:54:39 17:58:00 39° 300° (WNW) 18:01:11 437.475
KKS-1 16 Jan 17:57:27 18:01:39 42° 294° (WNW) 18:05:49 437.445
COMPASS 1 16 Jan 18:02:20 18:04:22 13° 53° (NE) 18:06:23 437.405
LilacSat-2 16 Jan 18:02:51 18:06:34 54° 260° (W) 18:10:18 437.200
BEESAT 3 16 Jan 18:02:55 18:06:31 35° 123° (ESE) 18:10:09 437.485
Cubesat XI-IV 16 Jan 18:03:41 18:08:58 68° 257° (WSW) 18:14:18 437.490
HORYU 2 16 Jan 18:13:00 18:16:21 21° 269° (W) 18:19:44 437.375
AAUSAT CUBESAT 2 16 Jan 18:17:49 18:20:06 14° 55° (NE) 18:22:23 437.432
MOZHAYETS 4 16 Jan 18:24:18 18:26:37 14° 309° (NW) 18:28:56
NOAA 15 16 Jan 18:28:46 18:33:46 42° 262° (W) 18:38:50 137.62
YUBILEINY 16 Jan 18:31:21 18:36:53 18° 320° (NW) 18:42:27 435.215
SO-50 16 Jan 18:31:59 18:35:40 25° 242° (WSW) 18:39:19 436.795
ZACube-1 16 Jan 18:32:32 18:33:22 11° 51° (NE) 18:34:13 437.345
CUTE 1.7 + AOD 2 16 Jan 18:33:07 18:37:06 41° 67° (ENE) 18:41:09 437.475
DANDE 16 Jan 18:34:18 18:36:22 11° 286° (WNW) 18:38:30 436.750
Cosmos 2504 16 Jan 18:35:51 18:42:06 22° 310° (NW) 18:48:07 435.465 / 435.565
BEESAT 2 16 Jan 18:38:06 18:41:46 37° 123° (ESE) 18:45:28 435.950
DOVE 4 16 Jan 18:49:18 18:53:43 30° 266° (W) 18:57:58 437.250
M-CUBED/EXP-1 PRIME 16 Jan 18:49:47 18:51:26 13° 314° (NW) 18:53:03 437.505
CUBESAT XI-V 16 Jan 18:57:09 19:01:08 27° 300° (WNW) 19:05:04 437.345
STRAND 1 16 Jan 18:57:42 19:01:37 22° 90° (E) 19:05:32 437.568
CUBEBUG 2 16 Jan 18:59:11 19:02:57 34° 65° (ENE) 19:06:43 437.445
CANX-2 16 Jan 19:01:06 19:05:22 83° 75° (ENE) 19:09:41 2200.000
CUTE-I 16 Jan 19:03:17 19:07:38 25° 268° (W) 19:12:02 437.470
STARS 16 Jan 19:03:18 19:06:45 23° 301° (WNW) 19:10:13 437.465
CINEMA 3 16 Jan 19:11:49 19:16:12 56° 259° (W) 19:20:26 145.822/145.860
AO-85 16 Jan 19:12:17 19:15:21 19° 350° (N) 19:18:17 145.980
Cosmos 2499 16 Jan 19:12:47 19:19:31 28° 81° (E) 19:25:54 435.465 / 435.565
NOAA 18 16 Jan 19:13:42 19:18:40 34° 265° (W) 19:23:38 137.9125
Oscar 11 16 Jan 19:14:11 19:17:26 21° 59° (ENE) 19:20:42 145.826/435.025
HO-68 16 Jan 19:18:08 19:25:21 75° 253° (WSW) 19:32:37 435.675
GONETS M04 16 Jan 19:20:29 19:27:25 28° 77° (ENE) 19:34:22
SEEDS 16 Jan 19:21:18 19:25:32 81° 74° (ENE) 19:29:49 437.485
COMPASS 1 16 Jan 19:35:01 19:39:13 77° 72° (ENE) 19:43:27 437.405
UWE-3 16 Jan 19:36:23 19:40:24 50° 69° (ENE) 19:44:26 435.000/436.395/437.385
BEESAT 3 16 Jan 19:40:19 19:44:06 43° 324° (NW) 19:47:56 437.485
FUNcube-1 16 Jan 19:44:31 19:48:18 36° 66° (ENE) 19:52:09 145.935
Cubesat XI-IV 16 Jan 19:47:52 19:50:06 12° 277° (W) 19:52:19 437.490
AAUSAT CUBESAT 2 16 Jan 19:50:45 19:54:56 86° 75° (ENE) 19:59:10 437.432
ZACube-1 16 Jan 20:04:45 20:08:49 59° 71° (ENE) 20:12:56 437.345
CUTE 1.7 + AOD 2 16 Jan 20:09:26 20:13:05 28° 267° (W) 20:16:47 437.475
DELFI C3 16 Jan 20:11:09 20:14:27 25° 62° (ENE) 20:17:47 145.870
BEESAT 2 16 Jan 20:15:43 20:19:32 43° 324° (NW) 20:23:24 435.950
CUBEBUG 2 16 Jan 20:35:53 20:39:38 31° 265° (W) 20:43:23 437.445
STRAND 1 16 Jan 20:36:12 20:41:20 71° 290° (WNW) 20:46:27 437.568
CANX-2 16 Jan 20:39:31 20:41:50 14° 274° (W) 20:44:10 2200.000
Oscar 11 16 Jan 20:48:55 20:53:12 62° 258° (WSW) 20:57:32 145.826/435.025
HUMSAT D 16 Jan 20:53:22 20:57:08 36° 66° (ENE) 21:00:58 437.325/437.525
AO-85 16 Jan 20:54:01 20:57:07 20° 15° (NNE) 21:00:07 145.980
SEEDS 16 Jan 20:59:27 21:01:49 15° 274° (W) 21:04:11 437.485
BY70-1 16 Jan 21:03:15 21:04:25 12° 56° (NE) 21:05:38 436.1900
Cosmos 2499 16 Jan 21:03:30 21:11:57 82° 282° (WNW) 21:19:49 435.465 / 435.565
HO-68 16 Jan 21:09:30 21:14:19 19° 275° (W) 21:19:11 435.675
COMPASS 1 16 Jan 21:12:51 21:15:19 15° 273° (W) 21:17:47 437.405
UWE-3 16 Jan 21:13:56 21:17:10 22° 269° (W) 21:20:24 435.000/436.395/437.385
GONETS M04 16 Jan 21:14:30 21:23:14 86° 281° (W) 21:32:05
PRISM 16 Jan 21:15:16 21:18:42 24° 93° (E) 21:22:05 437.425
BEESAT 3 16 Jan 21:19:48 21:22:38 18° 347° (NNW) 21:25:29 437.485
FUNcube-1 16 Jan 21:21:00 21:24:38 29° 266° (W) 21:28:19 145.935
AAUSAT CUBESAT 2 16 Jan 21:28:56 21:31:02 13° 274° (W) 21:33:08 437.432
AIST 2 16 Jan 21:35:43 21:39:45 53° 127° (SE) 21:43:52 435.215
JAS-2 16 Jan 21:36:36 21:38:59 12° 79° (ENE) 21:41:26 435.910
ZACube-1 16 Jan 21:42:36 21:45:32 18° 270° (W) 21:48:28 437.345
DELFI C3 16 Jan 21:45:14 21:49:05 43° 261° (W) 21:52:58 145.870
BEESAT 2 16 Jan 21:55:22 21:58:15 19° 347° (NNW) 22:01:09 435.950
UNISAT 6 16 Jan 21:58:02 22:01:36 24° 92° (E) 22:05:14 437.425
CUBEBUG 1 16 Jan 22:04:36 22:08:05 23° 59° (ENE) 22:11:34 437.445
SPROUT 16 Jan 22:08:53 22:11:02 14° 53° (NE) 22:13:12 437.525
AISAT 16 Jan 22:10:20 22:13:33 20° 57° (ENE) 22:16:46 437.250
50 SAT 16 Jan 22:12:29 22:13:48 12° 55° (NE) 22:15:06 437.505
TIGRISAT 16 Jan 22:12:32 22:16:24 30° 95° (E) 22:20:18 435.000
ESTCUBE 1 16 Jan 22:13:28 22:17:43 40° 65° (ENE) 22:21:59 437.505/2401.250
STRAND 1 16 Jan 22:16:38 22:19:42 16° 310° (NW) 22:22:46 437.568
ANTELSAT 16 Jan 22:26:32 22:30:41 41° 98° (E) 22:34:54 437.575/2403.000
HUMSAT D 16 Jan 22:29:13 22:32:49 29° 265° (W) 22:36:30 437.325/437.525
BY70-1 16 Jan 22:31:16 22:34:15 76° 253° (WSW) 22:37:34 436.1900
RS-15 16 Jan 22:32:31 22:38:18 15° 90° (E) 22:44:09 29.354- 29.394
AO-85 16 Jan 22:34:25 22:38:22 52° 39° (NE) 22:42:11 145.980
YUBILEINY 16 Jan 22:37:55 22:41:35 13° 30° (NNE) 22:45:14 435.215
VELOX 1 16 Jan 22:42:59 22:46:58 33° 63° (ENE) 22:50:58 145.980
PRISM 16 Jan 22:50:13 22:54:11 45° 293° (WNW) 22:58:06 437.425
BEESAT 3 16 Jan 22:58:50 23:01:35 18° 11° (N) 23:04:22 437.485
Cosmos 2499 16 Jan 22:59:52 23:06:21 25° 306° (NW) 23:12:32 435.465 / 435.565
POPSAT HIP 1 16 Jan 23:08:09 23:10:26 14° 87° (E) 23:12:42 437.405
GONETS M04 16 Jan 23:14:17 23:21:29 28° 307° (NW) 23:28:47
AIST 2 16 Jan 23:14:34 23:18:25 35° 328° (NNW) 23:22:22 435.215
JAS-2 16 Jan 23:18:52 23:25:28 51° 99° (E) 23:32:44 435.910
DUCHIFAT 1 16 Jan 23:23:48 23:26:37 17° 89° (E) 23:29:25 145.980
NANOSAT C BR1 16 Jan 23:26:56 23:30:03 20° 91° (E) 23:33:10 145.865
DX 1 16 Jan 23:28:30 23:32:40 45° 67° (ENE) 23:36:52 434.975-435.025
UNISAT 6 16 Jan 23:34:21 23:38:35 50° 291° (WNW) 23:42:53 437.425
BEESAT 2 16 Jan 23:34:32 23:37:23 18° 11° (N) 23:40:14 435.950
UKube-1 16 Jan 23:35:56 23:40:00 40° 66° (ENE) 23:44:04 .
CUBEBUG 1 16 Jan 23:39:42 23:44:04 57° 259° (W) 23:48:26 437.445
SPROUT 16 Jan 23:42:02 23:46:17 78° 73° (ENE) 23:50:34 437.525
50 SAT 16 Jan 23:42:50 23:46:25 85° 78° (ENE) 23:50:03 437.505
AISAT 16 Jan 23:45:07 23:49:35 72° 257° (WSW) 23:54:03 437.250
TIGRISAT 16 Jan 23:49:08 23:53:12 40° 294° (WNW) 23:57:20 435.000
TISAT 1 16 Jan 23:50:07 23:53:16 21° 59° (ENE) 23:56:25 437.305
ESTCUBE 1 16 Jan 23:50:33 23:54:36 32° 265° (W) 23:58:42 437.505/2401.250
ANTELSAT 17 Jan 00:03:31 00:07:19 30° 297° (WNW) 00:11:10 437.575/2403.000
BEESAT 17 Jan 00:11:38 00:13:38 13° 48° (NE) 00:15:39 436.000
SWISSCUBE 17 Jan 00:12:23 00:14:45 14° 49° (NE) 00:17:08 437.505
BUGSAT 1 17 Jan 00:14:54 00:17:58 21° 92° (E) 00:21:01 437.445
AO-85 17 Jan 00:15:11 00:18:33 27° 240° (WSW) 00:21:51 145.980
QB50P1 17 Jan 00:16:02 00:20:13 58° 102° (ESE) 00:24:22 145.935-145.965
POLYITAN 1 17 Jan 00:18:51 00:23:03 62° 102° (ESE) 00:27:15 437.675
VELOX 1 17 Jan 00:19:13 00:23:24 38° 263° (W) 00:27:34 145.980
QB50P2 17 Jan 00:19:56 00:24:10 68° 102° (ESE) 00:28:23 145.880/145.840
Cosmos 2504 17 Jan 00:30:51 00:36:15 20° 48° (NE) 00:41:26 435.465 / 435.565
YUBILEINY 17 Jan 00:33:51 00:41:54 37° 60° (ENE) 00:49:52 435.215
RS-15 17 Jan 00:36:12 00:47:34 53° 116° (ESE) 00:59:19 29.354- 29.394
BEESAT 3 17 Jan 00:36:26 00:40:12 38° 34° (NNE) 00:43:58 437.485
POPSAT HIP 1 17 Jan 00:42:33 00:46:47 82° 285° (WNW) 00:51:00 437.405
ISS 17 Jan 00:45:08 00:47:36 20° 149° (SSE) 00:50:07 145.825
AIST 2 17 Jan 00:55:00 00:58:00 18° 352° (N) 01:01:02 435.215
AIST 1 17 Jan 00:56:27 01:00:24 34° 69° (ENE) 01:04:19
Oscar 19 17 Jan 00:57:42 01:01:27 20° 88° (E) 01:05:11 437.125/150
DUCHIFAT 1 17 Jan 00:58:34 01:02:44 66° 288° (WNW) 01:06:54 145.980
M-CUBED/EXP-1 PRIME 17 Jan 01:00:44 01:01:21 10° 44° (NE) 01:01:58 437.505
NANOSAT C BR1 17 Jan 01:02:00 01:06:08 57° 290° (WNW) 01:10:15 145.865
JAS-2 17 Jan 01:04:12 01:10:29 46° 297° (WNW) 01:17:26 435.910
DX 1 17 Jan 01:05:19 01:09:03 27° 266° (W) 01:12:47 434.975-435.025
ITUPSAT 1 17 Jan 01:09:09 01:13:17 30° 61° (ENE) 01:17:27 437.325
BEESAT 2 17 Jan 01:12:20 01:16:10 39° 34° (NE) 01:19:59 435.950
UKube-1 17 Jan 01:12:21 01:16:09 29° 265° (W) 01:19:58 .
50 SAT 17 Jan 01:19:23 01:20:12 11° 273° (W) 01:21:02 437.505
SPROUT 17 Jan 01:20:17 01:22:46 15° 272° (W) 01:25:16 437.525
GONETS M04 17 Jan 01:21:36 01:22:30 10° 338° (NNW) 01:23:25
TISAT 1 17 Jan 01:24:27 01:28:35 59° 258° (WSW) 01:32:43 437.305
AISAT 17 Jan 01:25:43 01:26:52 11° 276° (W) 01:28:02 437.250
Cosmos 2491 17 Jan 01:31:10 01:38:01 27° 77° (ENE) 01:44:54 435.465 / 435.565
AUBIESAT-1 17 Jan 01:38:37 01:41:12 16° 50° (NE) 01:43:42 437.475
BEESAT 17 Jan 01:45:50 01:50:30 58° 68° (ENE) 01:55:11 436.000
SWISSCUBE 17 Jan 01:47:00 01:51:41 65° 70° (ENE) 01:56:27 437.505
BUGSAT 1 17 Jan 01:49:42 01:53:37 50° 291° (WNW) 01:57:31 437.445
KKS-1 17 Jan 01:51:57 01:53:29 12° 49° (NE) 01:55:01 437.445
QB50P1 17 Jan 01:52:27 01:55:40 21° 301° (WNW) 01:58:52 145.935-145.965
PCSat 17 Jan 01:53:09 01:58:03 36° 116° (ESE) 02:02:59 145.827
POLYITAN 1 17 Jan 01:55:23 01:58:29 20° 302° (WNW) 02:01:37 437.675
QB50P2 17 Jan 01:56:34 01:59:34 19° 302° (WNW) 02:02:34 145.880/145.840
BEESAT 3 17 Jan 02:14:05 02:17:55 44° 234° (SW) 02:21:44 437.485
MOZHAYETS 4 17 Jan 02:16:51 02:21:04 37° 64° (ENE) 02:25:18
Gurwin Techsat 1B 17 Jan 02:18:31 02:23:41 48° 99° (E) 02:28:49 435.225
POPSAT HIP 1 17 Jan 02:19:43 02:21:56 14° 306° (NW) 02:24:08 437.405
ISS 17 Jan 02:20:29 02:23:40 52° 168° (SSE) 02:26:50 145.825
Cosmos 2504 17 Jan 02:23:43 02:31:24 69° 75° (ENE) 02:38:37 435.465 / 435.565
YUBILEINY 17 Jan 02:30:42 02:39:31 72° 265° (W) 02:48:14 435.215
M-CUBED/EXP-1 PRIME 17 Jan 02:30:51 02:35:04 48° 62° (ENE) 02:38:59 437.505
CUSAT 1 17 Jan 02:31:07 02:33:47 14° 72° (ENE) 02:36:45 437.405
AIST 1 17 Jan 02:34:09 02:37:58 31° 270° (W) 02:41:44
AIST 2 17 Jan 02:34:34 02:37:50 21° 16° (NNE) 02:41:07 435.215
DUCHIFAT 1 17 Jan 02:36:09 02:37:40 12° 308° (NW) 02:39:10 145.980
Oscar 19 17 Jan 02:36:11 02:41:24 78° 289° (WNW) 02:46:34 437.125/150
NANOSAT C BR1 17 Jan 02:40:12 02:41:00 10° 310° (NW) 02:41:48 145.865
ITUPSAT 1 17 Jan 02:46:22 02:50:58 48° 260° (W) 02:55:37 437.325
RS-15 17 Jan 02:47:42 02:59:50 73° 324° (NW) 03:12:19 29.354- 29.394
BEESAT 2 17 Jan 02:50:10 02:54:02 43° 235° (SW) 02:57:52 435.950
JAS-2 17 Jan 02:50:52 02:54:11 14° 319° (NW) 02:57:39 435.910
CUBESAT XI-V 17 Jan 02:53:07 02:56:26 19° 56° (NE) 02:59:45 437.345
STARS 17 Jan 02:54:18 02:57:22 19° 56° (NE) 03:00:27 437.465
